Terug naar catalogus

STARLINK-5852

ActiefCommunicatieVLEO
NORAD 55933·PAYLOAD·🇺🇸 United States

Gelanceerd Mar 17, 2023 vanaf Vandenberg Space Force Base

Loading…

Volgende Passages (komende 24 uur)

TLE

VersSource: CelesTrak SupGP

Epoch: Sep 15, 2026, 01:47 UTC

1 55933C 23037V   26258.07479167  .00423710  00000+0  34156-1 0  2588
2 55933  70.0005 167.0421 0003091 272.0560 172.8239 14.99613015    17

Volg STARLINK-5852 in realtime met AllMySat

Download on the App Store